Duluth, MN

9:12 PM CST on January 18, 2017 (GMT -0600)
Sky Harbor

Weather History for KDYT - July, 2013

Change the Weather History Date:

Wednesday, July 31, 2013

  Actual Average Record
Temperature  
Mean Temperature 70 °F -  
Max Temperature 78 °F 78 °F 94 °F (1988)
Min Temperature 62 °F 59 °F 42 °F (1958)
Cooling Degree Days 5    
Growing Degree Days 20 (Base 50)    
Moisture  
Dew Point 57 °F    
Average Humidity 67    
Maximum Humidity 94    
Minimum Humidity 39    
Precipitation  
Precipitation 0.00 in - - ()
Sea Level Pressure  
Sea Level Pressure 29.98 in    
Wind  
Wind Speed 11 mph (WSW)    
Max Wind Speed 23 mph    
Max Gust Speed 28 mph    
Visibility 10 miles    
Events Rain    
Averages and records for this station are not official NWS values.
T = Trace of Precipitation, MM = Missing Value Source: NWS Daily Summary

Daily Weather History Graph

Daily Weather History Graph

Search for Another Location

Airport or City:

Trip Planner

Search our weather history database for the weather conditions in past years. The results will help you decide how hot, cold, wet, or windy it might be!

Date:

Astronomy

Jul. 31, 2013 Rise Set
Actual Time 5:47 AM CDT 8:40 PM CDT
Civil Twilight 5:12 AM CDT 9:15 PM CDT
Nautical Twilight 4:26 AM CDT 10:00 PM CDT
Astronomical Twilight 3:32 AM CDT 10:54 PM CDT
Moon 12:43 AM CDT (7/31) 3:58 PM CDT (7/31)
Length of Visible Light 16h 03m
Length of Day
14h 53m
Waning Crescent, 31% of the Moon is Illuminated
Jul 31
Waning Crescent
Aug 6
New
Aug 14
First Quarter
Aug 20
Full
Aug 28
Last Quarter

Hourly Weather History & Observations

Time (CDT) Temp. Dew Point Humidity Pressure Visibility Wind Dir Wind Speed Gust Speed Precip Events Conditions
12:13 AM 62.6 °F 60.8 °F 94% 30.04 in 10.0 mi SW 8.1 mph - N/A   Clear
12:33 AM 62.6 °F 60.8 °F 94% 30.03 in 10.0 mi SSW 6.9 mph - N/A   Clear
12:54 AM 62.6 °F 60.8 °F 94% 30.03 in 10.0 mi SSW 6.9 mph - N/A   Clear
1:13 AM 62.6 °F 60.8 °F 94% 30.02 in 10.0 mi SSW 8.1 mph - N/A   Clear
1:54 AM 62.6 °F 60.8 °F 94% 30.02 in 10.0 mi SSW 9.2 mph - N/A   Clear
2:13 AM 62.6 °F 60.8 °F 94% 30.02 in 10.0 mi SSW 10.4 mph - N/A   Clear
2:33 AM 62.6 °F 60.8 °F 94% 30.02 in 10.0 mi SSW 10.4 mph - N/A   Clear
2:54 AM 62.6 °F 60.8 °F 94% 30.01 in 10.0 mi SSW 9.2 mph - N/A   Clear
3:13 AM 62.6 °F 60.8 °F 94% 30.01 in 10.0 mi SW 11.5 mph - N/A   Scattered Clouds
3:34 AM 62.6 °F 60.8 °F 94% 30.01 in 10.0 mi SW 10.4 mph - N/A   Mostly Cloudy
3:53 AM 62.6 °F 60.8 °F 94% 30.01 in 10.0 mi SW 10.4 mph - N/A   Scattered Clouds
4:13 AM 62.6 °F 60.8 °F 94% 30.00 in 10.0 mi SW 9.2 mph - N/A   Scattered Clouds
4:34 AM 62.6 °F 60.8 °F 94% 30.01 in 10.0 mi SSW 10.4 mph - N/A   Scattered Clouds
4:53 AM 62.6 °F 60.8 °F 94% 30.01 in 10.0 mi SW 8.1 mph - N/A   Scattered Clouds
5:13 AM 62.6 °F 60.8 °F 94% 30.02 in 10.0 mi SW 8.1 mph - N/A   Mostly Cloudy
5:34 AM 62.6 °F 60.8 °F 94% 30.02 in 10.0 mi SSW 4.6 mph - N/A Rain Rain
5:53 AM 62.6 °F 60.8 °F 94% 30.01 in 10.0 mi South 4.6 mph - N/A   Scattered Clouds
6:13 AM 62.6 °F 60.8 °F 94% 30.01 in 10.0 mi SSW 5.8 mph - N/A   Mostly Cloudy
6:34 AM 62.6 °F 60.8 °F 94% 30.01 in 10.0 mi South 5.8 mph - N/A   Overcast
6:53 AM 62.6 °F 60.8 °F 94% 30.01 in 10.0 mi SSW 6.9 mph - N/A   Mostly Cloudy
7:14 AM 62.6 °F 60.8 °F 94% 30.01 in 10.0 mi SSW 8.1 mph - N/A   Scattered Clouds
7:34 AM 62.6 °F 60.8 °F 94% 30.01 in 10.0 mi SSW 5.8 mph - N/A   Clear
7:53 AM 62.6 °F 60.8 °F 94% 30.01 in 10.0 mi SSW 6.9 mph - N/A   Clear
8:14 AM 64.4 °F 60.8 °F 88% 30.01 in 10.0 mi SW 6.9 mph - N/A   Clear
8:34 AM 66.2 °F 62.6 °F 88% 30.01 in 10.0 mi SSW 6.9 mph - N/A   Clear
8:53 AM 66.2 °F 62.6 °F 88% 30.01 in 10.0 mi South 6.9 mph - N/A   Clear
9:14 AM 69.8 °F 64.4 °F 83% 30.00 in 10.0 mi SSW 5.8 mph - N/A   Clear
9:34 AM 69.8 °F 62.6 °F 78% 30.00 in 10.0 mi West 8.1 mph - N/A   Clear
9:53 AM 69.8 °F 64.4 °F 83% 29.99 in 10.0 mi SW 6.9 mph - N/A   Clear
10:14 AM 71.6 °F 62.6 °F 73% 29.99 in 10.0 mi WSW 9.2 mph - N/A   Clear
10:33 AM 73.4 °F 62.6 °F 69% 29.99 in 10.0 mi SW 10.4 mph - N/A   Clear
10:54 AM 73.4 °F 60.8 °F 65% 29.98 in 10.0 mi WSW 12.7 mph - N/A   Scattered Clouds
11:13 AM 75.2 °F 57.2 °F 53% 29.97 in 10.0 mi West 11.5 mph 17.3 mph N/A   Scattered Clouds
11:34 AM 75.2 °F 57.2 °F 53% 29.97 in 10.0 mi West 12.7 mph - N/A   Scattered Clouds
11:53 AM 75.2 °F 57.2 °F 53% 29.96 in 10.0 mi West 16.1 mph 21.9 mph N/A   Scattered Clouds
12:13 PM 75.2 °F 53.6 °F 47% 29.96 in 10.0 mi WNW 13.8 mph 18.4 mph N/A   Mostly Cloudy
12:34 PM 77.0 °F 51.8 °F 41% 29.96 in 10.0 mi WNW 17.3 mph - N/A   Scattered Clouds
12:53 PM 77.0 °F 51.8 °F 41% 29.96 in 10.0 mi West 18.4 mph 25.3 mph N/A   Clear
1:13 PM 77.0 °F 50.0 °F 39% 29.96 in 10.0 mi WNW 21.9 mph 26.5 mph N/A   Clear
1:34 PM 77.0 °F 50.0 °F 39% 29.95 in 10.0 mi West 21.9 mph 27.6 mph N/A   Clear
1:54 PM 77.0 °F 50.0 °F 39% 29.95 in 10.0 mi West 18.4 mph - N/A   Clear
2:13 PM 77.0 °F 50.0 °F 39% 29.95 in 10.0 mi West 21.9 mph 26.5 mph N/A   Scattered Clouds
2:34 PM 77.0 °F 51.8 °F 41% 29.95 in 10.0 mi West 18.4 mph 23.0 mph N/A   Scattered Clouds
2:53 PM 77.0 °F 51.8 °F 41% 29.95 in 10.0 mi West 19.6 mph - N/A   Clear
3:13 PM 78.8 °F 51.8 °F 39% 29.94 in 10.0 mi West 19.6 mph - N/A   Scattered Clouds
3:34 PM 77.0 °F 51.8 °F 41% 29.94 in 10.0 mi West 21.9 mph 27.6 mph N/A   Scattered Clouds
3:53 PM 77.0 °F 51.8 °F 41% 29.94 in 10.0 mi West 21.9 mph 27.6 mph N/A   Scattered Clouds
4:14 PM 75.2 °F 53.6 °F 47% 29.93 in 10.0 mi WNW 19.6 mph 24.2 mph N/A   Scattered Clouds
4:33 PM 77.0 °F 51.8 °F 41% 29.93 in 10.0 mi WNW 21.9 mph - N/A   Scattered Clouds
4:53 PM 77.0 °F 51.8 °F 41% 29.93 in 10.0 mi West 23.0 mph 27.6 mph N/A   Clear
5:14 PM 75.2 °F 51.8 °F 44% 29.94 in 10.0 mi West 18.4 mph 26.5 mph N/A   Scattered Clouds
5:33 PM 75.2 °F 51.8 °F 44% 29.94 in 10.0 mi WNW 18.4 mph - N/A   Clear
5:54 PM 75.2 °F 53.6 °F 47% 29.94 in 10.0 mi West 21.9 mph 26.5 mph N/A   Scattered Clouds
6:13 PM 75.2 °F 51.8 °F 44% 29.94 in 10.0 mi West 19.6 mph 26.5 mph N/A   Scattered Clouds
6:34 PM 75.2 °F 51.8 °F 44% 29.94 in 10.0 mi WNW 18.4 mph - N/A   Scattered Clouds
6:53 PM 75.2 °F 51.8 °F 44% 29.94 in 10.0 mi West 15.0 mph - N/A   Scattered Clouds
7:13 PM 73.4 °F 51.8 °F 47% 29.94 in 10.0 mi WNW 15.0 mph - N/A   Scattered Clouds
7:34 PM 73.4 °F 51.8 °F 47% 29.94 in 10.0 mi West 18.4 mph 23.0 mph N/A   Scattered Clouds
7:53 PM 73.4 °F 51.8 °F 47% 29.95 in 10.0 mi West 16.1 mph 21.9 mph N/A   Scattered Clouds
8:13 PM 71.6 °F 55.4 °F 57% 29.95 in 10.0 mi WNW 11.5 mph - N/A   Scattered Clouds
8:34 PM 71.6 °F 53.6 °F 53% 29.95 in 10.0 mi WNW 15.0 mph - N/A   Scattered Clouds
8:53 PM 71.6 °F 53.6 °F 53% 29.95 in 10.0 mi WNW 8.1 mph - N/A   Clear
9:13 PM 69.8 °F 53.6 °F 56% 29.96 in 10.0 mi WNW 12.7 mph - N/A   Clear
9:33 PM 69.8 °F 53.6 °F 56% 29.96 in 10.0 mi West 12.7 mph - N/A   Clear
9:53 PM 69.8 °F 53.6 °F 56% 29.97 in 10.0 mi WNW 10.4 mph - N/A   Clear
10:14 PM 68.0 °F 51.8 °F 56% 29.97 in 10.0 mi WNW 13.8 mph - N/A   Clear
10:33 PM 66.2 °F 53.6 °F 64% 29.97 in 10.0 mi WSW 6.9 mph - N/A   Clear
10:53 PM 66.2 °F 53.6 °F 64% 29.97 in 10.0 mi SW 8.1 mph - N/A   Clear
11:14 PM 64.4 °F 51.8 °F 64% 29.97 in 10.0 mi WSW 6.9 mph - N/A   Clear
11:33 PM 64.4 °F 53.6 °F 68% 29.97 in 10.0 mi SSW 8.1 mph - N/A   Clear
11:53 PM 64.4 °F 51.8 °F 64% 29.97 in 10.0 mi SW 8.1 mph - N/A   Clear